User: anonymous   Login
Location: Unspecified
(0.0000°N, 0.0000°E)
Time: 08:05:30
(UTC+00:00)
Language:

VZLUSAT 1 - Orbit

View from above orbital plane
View from above orbital plane
View from above satellite
View from above satellite

Ground track
Ground track

The orbit data is extracted from the following two-line orbital elements,

1 42790U 17036AB  19345.68281320 +.00001340 +00000-0 +58297-4 0  9994
2 42790 097.3318 040.4896 0010087 337.1818 022.8970 15.23930172137094
Epoch (UTC): 11 December 2019 16:23:15
Eccentricity: 0.0010087
inclination: 97.3318°
perigee height: 487 km
apogee height: 501 km
right ascension of ascending node: 40.4896°
argument of perigee: 337.1818°
revolutions per day: 15.23930172
mean anomaly at epoch: 22.8970°
orbit number at epoch: 13709

The dashed part of the orbit path shows where the satellite is in the earth's shadow,  

DLR